Blackpool, United Kingdom

8:51 PM BST on April 27, 2017 (GMT +0100)
Blackpool

Weather History for EGNH - August, 2013

Change the Weather History Date:

Saturday, August 17, 2013

  Actual Average Record
Temperature  
Mean Temperature 61 °F -  
Max Temperature 64 °F 62 °F 80 °F (2002)
Min Temperature 58 °F 53 °F 48 °F (1999)
Degree Days  
Heating Degree Days 4    
Growing Degree Days 11 (Base 50)    
Moisture  
Dew Point 59 °F    
Average Humidity 87    
Maximum Humidity 94    
Minimum Humidity 72    
Precipitation  
Precipitation 0.39 in - - ()
Sea Level Pressure  
Sea Level Pressure 29.64 in    
Wind  
Wind Speed 15 mph ()    
Max Wind Speed 24 mph    
Max Gust Speed -    
Visibility 5.3 miles    
Events Rain    
Averages and records for this station are not official NWS values.
T = Trace of Precipitation, MM = Missing Value Source: Averaged Metar Reports

Daily Weather History Graph

Daily Weather History Graph

Search for Another Location

Airport or City:

Trip Planner

Search our weather history database for the weather conditions in past years. The results will help you decide how hot, cold, wet, or windy it might be!

Date:

Astronomy

Aug. 17, 2013 Rise Set
Actual Time 5:54 AM BST 8:36 PM BST
Civil Twilight 5:14 AM BST 9:16 PM BST
Nautical Twilight 4:22 AM BST 10:07 PM BST
Astronomical Twilight 3:17 AM BST 11:11 PM BST
Moon 5:55 PM BST (8/17) 1:24 AM BST (8/17)
Length of Visible Light 16h 01m
Length of Day
14h 42m
Waxing Gibbous, 82% of the Moon is Illuminated
Aug 17
Waxing Gibbous
Aug 21
Full
Aug 28
Last Quarter
Sep 5
New
Sep 12
First Quarter

Hourly Weather History & Observations

Time (BST) Temp. Dew Point Humidity Pressure Visibility Wind Dir Wind Speed Gust Speed Precip Events Conditions
12:50 AM 62 °F 55 °F 73%  in - SSW 13.8 mph - -  
3:50 AM 58 °F 54 °F 83%  in - SSE 10.4 mph - -  
5:50 AM 60.8 °F 57.2 °F 88% 29.83 in 6.2 mi SSW 13.8 mph - N/A   Partly Cloudy
6:20 AM 62.6 °F 55.4 °F 77% 29.83 in 6.2 mi SSW 12.7 mph - N/A   Partly Cloudy
6:50 AM 59 °F 55 °F 82%  in - SSE 9.2 mph - -  
6:50 AM 60.8 °F 55.4 °F 82% 29.80 in 6.2 mi SE 8.1 mph - N/A   Partly Cloudy
7:20 AM 60.8 °F 55.4 °F 82% 29.80 in 6.2 mi SE 9.2 mph - N/A Rain Light Rain Showers
7:50 AM 59.0 °F 55.4 °F 88% 29.77 in 6.2 mi SE 11.5 mph - N/A   Scattered Clouds
8:50 AM 60.8 °F 57.2 °F 88% 29.77 in 6.2 mi SSE 13.8 mph - N/A   Mostly Cloudy
9:20 AM 62.6 °F 57.2 °F 82% 29.74 in 6.2 mi SSE 16.1 mph - N/A   Mostly Cloudy
9:50 AM 63 °F 56 °F 72%  in - South 15.0 mph - -  
9:50 AM 62.6 °F 57.2 °F 82% 29.74 in 6.2 mi SSE 16.1 mph - N/A   Mostly Cloudy
10:20 AM 64.4 °F 57.2 °F 77% 29.74 in 6.2 mi SSE 18.4 mph - N/A   Mostly Cloudy
10:50 AM 64.4 °F 57.2 °F 77% 29.71 in 6.2 mi South 18.4 mph - N/A   Mostly Cloudy
11:20 AM 64.4 °F 57.2 °F 77% 29.68 in 6.2 mi South 18.4 mph - N/A   Mostly Cloudy
11:50 AM 64.4 °F 57.2 °F 77% 29.68 in 6.2 mi South 23.0 mph - N/A   Mostly Cloudy
12:20 PM 64.4 °F 57.2 °F 77% 29.68 in 6.2 mi South 23.0 mph - N/A   Mostly Cloudy
12:50 PM 62 °F 58 °F 84%  in - SSW 24.2 mph - -  
12:50 PM 62.6 °F 57.2 °F 82% 29.68 in 5.0 mi SSW 24.2 mph - N/A Rain Rain
1:20 PM 60.8 °F 59.0 °F 94% 29.65 in 2.8 mi South 20.7 mph - N/A Rain Rain
1:50 PM 62.6 °F 59.0 °F 88% 29.62 in 3.7 mi SSE 18.4 mph - N/A Rain Light Rain
2:20 PM 62.6 °F 60.8 °F 94% 29.62 in 2.8 mi South 20.7 mph - N/A Rain Rain
2:50 PM 62.6 °F 60.8 °F 94% 29.59 in 3.1 mi South 23.0 mph - N/A Rain Rain
3:20 PM 62.6 °F 60.8 °F 94% 29.59 in 2.2 mi South 21.9 mph - N/A Rain Rain
3:50 PM 63 °F 62 °F 94%  in - SSW 21.9 mph - -  
3:50 PM 62.6 °F 60.8 °F 94% 29.59 in 2.5 mi South 20.7 mph - N/A Rain Rain
4:20 PM 62.6 °F 60.8 °F 94% 29.56 in 5.6 mi South 24.2 mph - N/A Rain Light Rain
4:50 PM 64.4 °F 62.6 °F 94% 29.56 in 6.2 mi South 16.1 mph - N/A Rain Light Rain
5:20 PM 64.4 °F 62.6 °F 94% 29.56 in 1.2 mi SSW 20.7 mph - N/A Rain Rain
5:50 PM 64.4 °F 62.6 °F 94% 29.53 in 4.3 mi SSW 20.7 mph - N/A Rain Light Rain
6:20 PM 64.4 °F 62.6 °F 94% 29.53 in 6.2 mi South 17.3 mph - N/A   Mostly Cloudy
6:50 PM 64 °F 62 °F 93%  in - South 13.8 mph - -  
6:50 PM 64.4 °F 62.6 °F 94% 29.53 in 6.2 mi South 15.0 mph - N/A   Scattered Clouds
7:20 PM 64.4 °F 62.6 °F 94% 29.50 in 6.2 mi South 12.7 mph - N/A Rain Rain
7:50 PM 64.4 °F 62.6 °F 94% 29.50 in 3.7 mi SW 24.2 mph - N/A Rain Rain
9:20 PM 62.6 °F 60.8 °F 94% 29.53 in 6.2 mi SW 20.7 mph - N/A   Partly Cloudy
9:50 PM 63 °F 60 °F 86%  in - WSW 23.0 mph - -  
9:50 PM 62.6 °F 60.8 °F 94% 29.53 in 6.2 mi SW 19.6 mph - N/A   Partly Cloudy
10:20 PM 62.6 °F 60.8 °F 94% 29.56 in 6.2 mi SW 19.6 mph - N/A   Partly Cloudy
10:50 PM 62.6 °F 59.0 °F 88% 29.56 in 6.2 mi WSW 21.9 mph - N/A   Partly Cloudy
11:20 PM 62.6 °F 57.2 °F 82% 29.56 in 6.2 mi West 16.1 mph - N/A Rain Light Rain